• In Portugal
  • List of Countries
  • For 7 days
  • Water Temperature
  • Satellite Maps
  • Weather Map
  • Weather Widgets
  • user-avatar
    Login

    Hourly Weather Podgorna

    Today, 18 September, Tuesday

    Time Temperature Precipitation Wind Pressure Humidity
    00:00 +16°C° 0 mm 2 mps 731 mmHg 77%
    01:00 +15°C° 0 mm 2 mps 731 mmHg 76%
    02:00 +15°C° 0 mm 2 mps 731 mmHg 77%
    03:00 +15°C° 0 mm 2 mps 731 mmHg 78%
    04:00 +15°C° 0 mm 2 mps 731 mmHg 79%
    05:00 +16°C° 0 mm 2 mps 731 mmHg 77%
    06:00 +16°C° 0 mm 2 mps 731 mmHg 76%
    07:00 +17°C° 0 mm 2 mps 731 mmHg 69%
    08:00 +19°C° 0 mm 2 mps 731 mmHg 63%
    09:00 +21°C° 0 mm 3 mps 731 mmHg 57%
    10:00 +24°C° 0 mm 3 mps 731 mmHg 52%
    11:00 +25°C° 0 mm 3 mps 731 mmHg 49%
    12:00 +26°C° 0 mm 4 mps 731 mmHg 47%
    13:00 +27°C° 0 mm 4 mps 731 mmHg 44%
    14:00 +27°C° 0 mm 4 mps 730 mmHg 45%
    15:00 +27°C° 0 mm 4 mps 730 mmHg 47%
    16:00 +27°C° 0 mm 4 mps 730 mmHg 48%
    17:00 +25°C° 0 mm 4 mps 730 mmHg 54%
    18:00 +22°C° 0 mm 3 mps 730 mmHg 60%
    19:00 +20°C° 0 mm 3 mps 730 mmHg 66%
    20:00 +19°C° 0 mm 3 mps 730 mmHg 66%
    21:00 +19°C° 0 mm 3 mps 730 mmHg 66%
    22:00 +18°C° 0 mm 3 mps 730 mmHg 66%
    23:00 +18°C° 0 mm 3 mps 730 mmHg 66%

    Tomorrow, 19 September, Wednesday

    Time Temperature Precipitation Wind Pressure Humidity
    00:00 +18°C° 0 mm 3 mps 730 mmHg 65%
    01:00 +18°C° 0 mm 3 mps 730 mmHg 65%
    02:00 +17°C° 0 mm 3 mps 730 mmHg 65%
    03:00 +17°C° 0 mm 3 mps 730 mmHg 66%
    04:00 +17°C° 0 mm 3 mps 730 mmHg 67%
    05:00 +17°C° 0 mm 2 mps 730 mmHg 67%
    06:00 +17°C° 0 mm 2 mps 731 mmHg 67%
    07:00 +18°C° 0 mm 2 mps 731 mmHg 68%
    08:00 +20°C° 0 mm 2 mps 731 mmHg 63%
    09:00 +21°C° 0 mm 2 mps 732 mmHg 58%
    10:00 +24°C° 0 mm 2 mps 732 mmHg 54%
    11:00 +25°C° 0 mm 2 mps 732 mmHg 51%
    12:00 +26°C° 0 mm 2 mps 732 mmHg 49%
    13:00 +27°C° 0 mm 1 mps 732 mmHg 46%
    14:00 +27°C° 0 mm 1 mps 732 mmHg 46%
    15:00 +27°C° 0 mm 1 mps 732 mmHg 47%
    16:00 +27°C° 0 mm 1 mps 732 mmHg 47%
    17:00 +25°C° 0.1 mm 1 mps 732 mmHg 54%
    18:00 +23°C° 0.1 mm 1 mps 732 mmHg 61%
    19:00 +20°C° 0.1 mm 2 mps 732 mmHg 68%
    20:00 +20°C° 0 mm 2 mps 732 mmHg 70%
    21:00 +19°C° 0 mm 2 mps 732 mmHg 73%
    22:00 +18°C° 0 mm 2 mps 732 mmHg 75%
    23:00 +18°C° 0 mm 2 mps 732 mmHg 76%

    Day after tomorrow, 20 September, Thursday

    Time Temperature Precipitation Wind Pressure Humidity
    00:00 +18°C° 0 mm 2 mps 731 mmHg 77%
    01:00 +17°C° 0 mm 2 mps 731 mmHg 78%
    02:00 +17°C° 0 mm 2 mps 731 mmHg 79%
    03:00 +17°C° 0 mm 2 mps 731 mmHg 80%
    04:00 +17°C° 0 mm 2 mps 731 mmHg 82%
    05:00 +17°C° 0 mm 2 mps 731 mmHg 80%
    06:00 +18°C° 0 mm 2 mps 731 mmHg 79%
    07:00 +18°C° 0 mm 2 mps 731 mmHg 78%
    08:00 +20°C° 0 mm 2 mps 732 mmHg 71%
    09:00 +23°C° 0 mm 1 mps 732 mmHg 63%
    10:00 +26°C° 0 mm 1 mps 732 mmHg 55%
    11:00 +26°C° 0 mm 1 mps 732 mmHg 52%
    12:00 +27°C° 0 mm 2 mps 732 mmHg 49%
    13:00 +28°C° 0 mm 2 mps 731 mmHg 45%
    14:00 +28°C° 0 mm 2 mps 731 mmHg 46%
    15:00 +28°C° 0 mm 2 mps 731 mmHg 46%
    16:00 +28°C° 0 mm 2 mps 730 mmHg 46%
    17:00 +26°C° 0 mm 2 mps 730 mmHg 52%
    18:00 +24°C° 0 mm 2 mps 730 mmHg 58%
    19:00 +21°C° 0 mm 2 mps 730 mmHg 64%
    20:00 +20°C° 0 mm 2 mps 730 mmHg 66%
    21:00 +20°C° 0 mm 2 mps 729 mmHg 68%
    22:00 +19°C° 0 mm 2 mps 729 mmHg 70%
    23:00 +19°C° 0 mm 2 mps 729 mmHg 71%

    21 September, Friday

    Time Temperature Precipitation Wind Pressure Humidity
    00:00 +18°C° 0 mm 3 mps 729 mmHg 73%
    01:00 +18°C° 0 mm 3 mps 728 mmHg 74%
    02:00 +18°C° 0 mm 3 mps 728 mmHg 73%
    03:00 +17°C° 0 mm 3 mps 728 mmHg 72%
    04:00 +17°C° 0 mm 3 mps 727 mmHg 71%
    05:00 +17°C° 0 mm 3 mps 727 mmHg 69%
    06:00 +18°C° 0 mm 3 mps 727 mmHg 67%
    07:00 +18°C° 0 mm 3 mps 727 mmHg 65%
    08:00 +20°C° 0 mm 4 mps 726 mmHg 59%
    09:00 +22°C° 0 mm 5 mps 726 mmHg 53%
    10:00 +25°C° 0 mm 5 mps 726 mmHg 47%
    11:00 +26°C° 0 mm 6 mps 726 mmHg 45%
    12:00 +27°C° 0 mm 6 mps 725 mmHg 43%
    13:00 +28°C° 0 mm 6 mps 725 mmHg 41%
    14:00 +28°C° 0 mm 6 mps 724 mmHg 43%
    15:00 +27°C° 0 mm 5 mps 724 mmHg 45%
    16:00 +27°C° 0 mm 5 mps 723 mmHg 47%
    17:00 +25°C° 0.1 mm 4 mps 723 mmHg 52%
    18:00 +23°C° 0.1 mm 4 mps 723 mmHg 56%
    19:00 +22°C° 0.1 mm 4 mps 723 mmHg 61%
    20:00 +20°C° 0.9 mm 4 mps 723 mmHg 69%
    21:00 +18°C° 0.9 mm 4 mps 724 mmHg 77%
    22:00 +15°C° 0.9 mm 4 mps 724 mmHg 85%
    23:00 +14°C° 2.5 mm 5 mps 725 mmHg 85%

    22 September, Saturday

    Time Temperature Precipitation Wind Pressure Humidity
    00:00 +13°C° 2.5 mm 5 mps 726 mmHg 85%
    01:00 +11°C° 2.5 mm 6 mps 727 mmHg 85%
    02:00 +10°C° 0.2 mm 6 mps 727 mmHg 83%
    03:00 +9°C° 0.2 mm 6 mps 728 mmHg 82%
    04:00 +8°C° 0.2 mm 6 mps 729 mmHg 81%
    05:00 +8°C° 0 mm 6 mps 730 mmHg 80%
    06:00 +8°C° 0 mm 6 mps 730 mmHg 79%
    07:00 +7°C° 0 mm 5 mps 731 mmHg 78%
    08:00 +8°C° 0 mm 5 mps 731 mmHg 72%
    09:00 +9°C° 0 mm 5 mps 732 mmHg 66%
    10:00 +12°C° 0 mm 5 mps 732 mmHg 60%
    11:00 +11°C° 0 mm 6 mps 732 mmHg 59%
    12:00 +11°C° 0 mm 6 mps 732 mmHg 58%
    13:00 +13°C° 0 mm 6 mps 732 mmHg 57%
    14:00 +13°C° 0 mm 6 mps 732 mmHg 56%
    15:00 +13°C° 0 mm 5 mps 732 mmHg 54%
    16:00 +14°C° 0 mm 5 mps 732 mmHg 52%
    17:00 +12°C° 0 mm 4 mps 733 mmHg 57%
    18:00 +11°C° 0 mm 3 mps 733 mmHg 62%
    19:00 +10°C° 0 mm 3 mps 733 mmHg 67%
    20:00 +9°C° 0 mm 2 mps 733 mmHg 68%
    21:00 +9°C° 0 mm 2 mps 733 mmHg 70%
    22:00 +9°C° 0 mm 2 mps 733 mmHg 71%
    23:00 +8°C° 0 mm 2 mps 733 mmHg 71%

    23 September, Sunday

    Time Temperature Precipitation Wind Pressure Humidity
    00:00 +8°C° 0 mm 2 mps 733 mmHg 72%
    01:00 +8°C° 0 mm 2 mps 733 mmHg 73%
    02:00 +8°C° 0 mm 2 mps 733 mmHg 74%
    03:00 +7°C° 0 mm 2 mps 733 mmHg 75%
    04:00 +7°C° 0 mm 2 mps 733 mmHg 76%
    05:00 +7°C° 0 mm 2 mps 733 mmHg 75%
    06:00 +8°C° 0 mm 2 mps 732 mmHg 74%
    07:00 +8°C° 0 mm 2 mps 732 mmHg 74%
    08:00 +10°C° 0 mm 3 mps 732 mmHg 65%
    09:00 +12°C° 0 mm 3 mps 732 mmHg 57%
    10:00 +14°C° 0 mm 4 mps 732 mmHg 49%
    11:00 +15°C° 0 mm 4 mps 731 mmHg 47%
    12:00 +15°C° 0 mm 5 mps 730 mmHg 45%
    13:00 +16°C° 0 mm 5 mps 729 mmHg 42%
    14:00 +16°C° 0 mm 5 mps 728 mmHg 43%
    15:00 +16°C° 0 mm 6 mps 727 mmHg 44%
    16:00 +16°C° 0 mm 6 mps 726 mmHg 45%
    17:00 +15°C° 0.3 mm 7 mps 725 mmHg 52%
    18:00 +14°C° 0.3 mm 7 mps 724 mmHg 60%
    19:00 +12°C° 0.3 mm 8 mps 723 mmHg 67%
    20:00 +12°C° 0.6 mm 8 mps 722 mmHg 67%
    21:00 +12°C° 0.6 mm 8 mps 721 mmHg 68%
    22:00 +12°C° 0.6 mm 8 mps 720 mmHg 68%
    23:00 +12°C° 0.3 mm 8 mps 719 mmHg 71%
    Show more